Regional Weather Roundup
Issued by NWS

Home | Current Version | Previous Version | Text Only | Print | Product List | Glossary On
Versions: 1 2 3 4 5 6 7 8 9 10 11 12 13 14 15 16 17 18 19 20 21 22 23 24 25 26 27 28 29 30 31 32 33 34 35 36 37 38 39 40 41 42 43 44 45 46 47 48 49 50
000
ASUS43 KMKX 020421
RWRWI

WISCONSIN REGIONAL WEATHER ROUNDUP
NATIONAL WEATHER SERVICE MILWAUKEE/SULLIVAN WI
1100 PM CDT SUN MAY 01 2016

NOTE: "FAIR" INDICATES FEW OR NO CLOUDS BELOW 12,000 FEET WITH NO
SIGNIFICANT WEATHER AND/OR OBSTRUCTIONS TO VISIBILITY.

WIZ001-002-006>008-014>016-023>028-020500-
NORTHWEST WISCONSIN

CITY           SKY/WX    TMP DP  RH WIND       PRES   REMARKS
SUPERIOR ARPT  CLEAR     31  30  96 CALM      30.17S
ASHLAND        CLEAR     33  32  96 CALM      30.16F
HAYWARD        CLEAR     38  32  79 N3        30.13F
SIREN          CLEAR     42  34  73 CALM      30.13F
CUMBERLAND     CLEAR     45  32  61 NE6       30.11F
RICE LAKE      CLEAR     47  34  59 NE9       30.13S
CHETEK         CLEAR     48  35  61 N3        30.10F
LADYSMITH      CLEAR     46  35  66 N8        30.12F
EAU CLAIRE     CLEAR     52  34  50 NE7       30.08S
MENOMONIE      CLEAR     51  36  57 N7        30.08F
NEW RICHMOND   CLEAR     48  33  56 NE8       30.11S
OSCEOLA        CLEAR     50  32  49 N5        30.14S
$$

WIZ003>005-009-010-017-018-020500-
NORTH CENTRAL WISCONSIN

CITY           SKY/WX    TMP DP  RH WIND       PRES   REMARKS
MANITOWISH WTR CLEAR     40  33  74 NE5       30.13S
ARBOR VITAE    CLEAR     45  34  65 NE6       30.12F
WOODRUFF       CLEAR     45  34  65 NE6       30.12F
RHINELANDER    PTCLDY    47  30  51 N5        30.12S
EAGLE RIVER    CLEAR     38  31  74 CALM      30.12F
LAND O LAKES   CLEAR     41  31  66 CALM      30.14F
PHILLIPS       CLEAR     42  34  73 N6        30.11S
TOMAHAWK       CLEAR     45  33  62 CALM      30.11F
MEDFORD        CLEAR     44  36  71 E3        30.09F
MERRILL        CLEAR     42  33  71 CALM      30.11S
$$

WIZ029-030-035-036-043>047-020500-
CENTRAL WISCONSIN

CITY           SKY/WX    TMP DP  RH WIND       PRES   REMARKS
WAUSAU         PTCLDY    49  33  54 CALM      30.08F
MOSINEE        PTCLDY    43  32  65 E3        30.10F
MARSHFIELD     PTCLDY    47  34  60 E6        30.08F
STEVENS POINT  MOCLDY    38  32  79 CALM      30.10S
WAUPACA        CLEAR     46  38  73 N3        30.10S
WAUTOMA        CLEAR     46  38  73 NE5       30.09S
WISC RAPIDS    CLEAR     39  32  76 N5        30.10F
CAMP DOUGLAS     N/A     46  39  74 CALM      30.08S
$$

WIZ011>013-019>022-031-037>040-048>050-020500-
NORTHEAST WISCONSIN

CITY           SKY/WX    TMP DP  RH WIND       PRES   REMARKS
ANTIGO         CLEAR     40  34  78 CALM      30.10F
SHAWANO        CLEAR     45  38  78 CALM      30.11S
OCONTO         CLEAR     38  38 100 CALM      30.10S
STURGEON BAY   CLEAR     45  34  65 N8        30.12S
GREEN BAY      CLEAR     44  39  82 N8        30.09S
MANITOWOC      CLOUDY    47  36  65 N8        30.08S
APPLETON       PTCLDY    45  36  70 NE6       30.08R
CLINTONVILLE   CLEAR     45  36  70 CALM      30.10S
OSHKOSH        CLOUDY    49  40  71 NE7       30.08S
$$

WIZ032>034-041-042-053>061-020500-
SOUTHWEST WISCONSIN

CITY           SKY/WX    TMP DP  RH WIND       PRES   REMARKS
LA CROSSE      CLEAR     45  37  73 CALM      30.08R
SPARTA         CLEAR     39  34  82 CALM      30.09S
VIROQUA          N/A     44  44 100 CALM      30.08R
BOSCOBEL       FOG       39  38  96 CALM      30.08R VSB 1/4
PRAIRIE DU CHI CLOUDY    42  40  94 CALM      30.08R FOG
PLATTEVILLE    CLOUDY    48  44  85 NE7       30.05R
$$

WIZ056-057-062-063-064-067-068-020500-
SOUTH CENTRAL WISCONSIN

CITY           SKY/WX    TMP DP  RH WIND       PRES   REMARKS
REEDSBURG      PTCLDY    46  37  72 CALM      30.08R
BARABOO/DELLS  CLEAR     46  38  75 NE7       30.07S
LONE ROCK      PTCLDY    45  42  89 CALM      30.07S
MINERAL POINT  CLOUDY    50  43  76 NE7       30.05R
MADISON        CLOUDY    48  42  80 NE8       30.05S
MIDDLETON      CLOUDY    49  43  78 NE8       30.06R
WATERTOWN      CLOUDY    46  46 100 NE12G17   30.05F
MONROE         CLOUDY    46  43  87 NE10      30.04R
JANESVILLE     DRIZZLE   46  46 100 NE7       30.03S
$$

WIZ051-052-058>065-066-070>072-020500-
SOUTHEAST WISCONSIN

CITY           SKY/WX    TMP DP  RH WIND       PRES   REMARKS
MILWAUKEE      LGT RAIN  44  42  93 N10       30.05R
WAUKESHA       LGT RAIN  43  43 100 NE8       30.05F
MILWAUKEE/TIMM DRIZZLE   45  41  87 N3        30.06S
RACINE         CLOUDY    45  42  89 N10       30.05S
BURLINGTON     LGT RAIN  45  44  99 NE8       30.02F
KENOSHA        LGT RAIN  46  42  86 NE16G24   30.02F
FOND DU LAC    CLOUDY    49  39  68 NE9       30.07F
SHEBOYGAN      CLOUDY    47  37  68 NE8       30.07S
WEST BEND      CLOUDY    45  37  76 NE6       30.06F
JUNEAU         DRIZZLE   47  41  82 NE7       30.07S
$$

LSZ147-162-020500-
LAKE SUPERIOR

STATION/POSITION TIME  TEMP    WIND        PRES    WAVE
                       AIR SEA DIR/SP/G            HT/PER
                 (UTC) (F)     (DEG/KT/KT) (MB)    (FT/S)
W MID LAKE BUOY  0350   37 37  350/  4/  4 1022.0F   1/ 5
DEVILS ISLAND    0400   39     360/  4/  5 1022.2F
SAXON HARBOR     0300   33     190/  2/  3 1021.0S
$$

LMZ867-665-643>646-020500-
LAKE MICHIGAN

STATION/POSITION TIME  TEMP    WIND        PRES    WAVE
                       AIR SEA DIR/SP/G            HT/PER
                 (UTC) (F)     (DEG/KT/KT) (MB)    (FT/S)
CHAMBERS ISLAND  0300   43      20/  3/  4 1020.0R
N MID LAKE BUOY  0350   42 38  340/ 10/ 12 1019.1F   0
NORTHPORT PIER   0300   43     300/  6/  7 1019.6S
KEWAUNEE LAKESHO 0400   48      10/  8/ 10 1018.2R
SHEBOYGAN LAKESH 0400   43      10/  9/ 10 1018.8F
PORT WASHINGTON  0340   47     330/  6/ 11 1019.0R
S MID LAKE BUOY  0350   42 40   50/  8/  8 1016.8R   2/ 5
KENOSHA   LAKESH 0400   44      30/ 15/ 17 1016.6F
$$

TC  - TEMPERATURE IN CELSIUS
VSB - VISIBILITY IN STATUTE MILES
WCI - WIND CHILL INDEX
HX  - HEAT INDEX





USA.gov is the U.S. government's official web portal to all federal, state and local government web resources and services.